When you browse on this site, cookies collect data to enhance your experience and personalize the content and advertising you see.
Visit our Privacy Policy to learn more. By continuing to use the site, you agree to this use of cookies and data.
  • In Hungary
  • List of Countries
  • For 7 days
  • Water Temperature
  • Weather Map
  • News
  • Weather Widgets
  • user-avatar
    Login

    Hourly Weather Polczyno

    Today, 7 December, Saturday

    Time Temperature Precipitation Wind Pressure Humidity
    00:00 +2°C° 0.2 mm 7 mps 745 mmHg 87%
    01:00 +2°C° 0 mm 7 mps 745 mmHg 90%
    02:00 +2°C° 0.5 mm 7 mps 744 mmHg 90%
    03:00 +3°C° 0.5 mm 7 mps 743 mmHg 91%
    04:00 +3°C° 0.5 mm 7 mps 743 mmHg 91%
    05:00 +4°C° 0.3 mm 7 mps 743 mmHg 88%
    06:00 +4°C° 0.3 mm 7 mps 743 mmHg 85%
    07:00 +4°C° 0 mm 6 mps 743 mmHg 81%
    08:00 +4°C° 0.4 mm 7 mps 743 mmHg 83%
    09:00 +5°C° 0.4 mm 7 mps 743 mmHg 86%
    10:00 +5°C° 0.4 mm 8 mps 743 mmHg 88%
    11:00 +6°C° 0.7 mm 8 mps 744 mmHg 86%
    12:00 +6°C° 0.7 mm 8 mps 745 mmHg 85%
    13:00 +6°C° 0 mm 8 mps 745 mmHg 84%
    14:00 +6°C° 0.2 mm 7 mps 746 mmHg 86%
    15:00 +5°C° 0.2 mm 6 mps 746 mmHg 87%
    16:00 +5°C° 0.2 mm 6 mps 747 mmHg 89%
    17:00 +5°C° 0.2 mm 6 mps 747 mmHg 88%
    18:00 +5°C° 0.2 mm 6 mps 748 mmHg 87%
    19:00 +5°C° 0.2 mm 6 mps 748 mmHg 87%
    20:00 +5°C° 0.1 mm 6 mps 748 mmHg 87%
    21:00 +5°C° 0.1 mm 6 mps 748 mmHg 87%
    22:00 +5°C° 0.1 mm 6 mps 749 mmHg 87%
    23:00 +5°C° 0.1 mm 6 mps 749 mmHg 87%

    Tomorrow, 8 December, Sunday

    Time Temperature Precipitation Wind Pressure Humidity
    00:00 +5°C° 0.1 mm 6 mps 749 mmHg 87%
    01:00 +5°C° 0.1 mm 6 mps 749 mmHg 87%
    02:00 +5°C° 0 mm 6 mps 748 mmHg 86%
    03:00 +5°C° 0 mm 6 mps 748 mmHg 85%
    04:00 +5°C° 0 mm 6 mps 747 mmHg 85%
    05:00 +4°C° 0 mm 6 mps 747 mmHg 84%
    06:00 +4°C° 0 mm 6 mps 747 mmHg 84%
    07:00 +4°C° 0 mm 6 mps 747 mmHg 84%
    08:00 +4°C° 0 mm 7 mps 746 mmHg 83%
    09:00 +4°C° 0 mm 8 mps 745 mmHg 82%
    10:00 +4°C° 0 mm 8 mps 744 mmHg 81%
    11:00 +5°C° 0 mm 8 mps 744 mmHg 79%
    12:00 +5°C° 0 mm 8 mps 743 mmHg 77%
    13:00 +6°C° 0 mm 9 mps 742 mmHg 75%
    14:00 +6°C° 0.3 mm 8 mps 741 mmHg 78%
    15:00 +7°C° 0.3 mm 8 mps 741 mmHg 81%
    16:00 +7°C° 0.3 mm 8 mps 740 mmHg 83%
    17:00 +7°C° 0 mm 8 mps 740 mmHg 82%
    18:00 +9°C° 0 mm 8 mps 740 mmHg 81%
    19:00 +9°C° 0 mm 7 mps 741 mmHg 80%
    20:00 +8°C° 0 mm 7 mps 740 mmHg 81%
    21:00 +7°C° 0 mm 6 mps 740 mmHg 81%
    22:00 +6°C° 0 mm 5 mps 740 mmHg 82%
    23:00 +6°C° 0 mm 5 mps 740 mmHg 81%

    Day after tomorrow, 9 December, Monday

    Time Temperature Precipitation Wind Pressure Humidity
    00:00 +5°C° 0 mm 5 mps 740 mmHg 80%
    01:00 +5°C° 0 mm 5 mps 739 mmHg 79%
    02:00 +5°C° 0 mm 5 mps 739 mmHg 79%
    03:00 +5°C° 0 mm 5 mps 739 mmHg 78%
    04:00 +4°C° 0 mm 6 mps 739 mmHg 78%
    05:00 +4°C° 0 mm 6 mps 739 mmHg 80%
    06:00 +3°C° 0 mm 5 mps 739 mmHg 81%
    07:00 +3°C° 0 mm 5 mps 740 mmHg 83%
    08:00 +3°C° 0 mm 6 mps 739 mmHg 80%
    09:00 +4°C° 0 mm 6 mps 739 mmHg 77%
    10:00 +4°C° 0 mm 7 mps 739 mmHg 74%
    11:00 +4°C° 0 mm 7 mps 739 mmHg 74%
    12:00 +5°C° 0 mm 6 mps 739 mmHg 73%
    13:00 +5°C° 0 mm 6 mps 738 mmHg 72%
    14:00 +5°C° 0.1 mm 6 mps 738 mmHg 75%
    15:00 +5°C° 0.1 mm 6 mps 738 mmHg 77%
    16:00 +4°C° 0.1 mm 6 mps 738 mmHg 80%
    17:00 +4°C° 0.4 mm 6 mps 738 mmHg 81%
    18:00 +4°C° 0.4 mm 6 mps 739 mmHg 83%
    19:00 +4°C° 0.4 mm 6 mps 739 mmHg 84%
    20:00 +4°C° 0 mm 7 mps 740 mmHg 82%
    21:00 +4°C° 0 mm 7 mps 741 mmHg 80%
    22:00 +4°C° 0 mm 7 mps 741 mmHg 78%
    23:00 +3°C° 0.1 mm 7 mps 742 mmHg 80%

    10 December, Tuesday

    Time Temperature Precipitation Wind Pressure Humidity
    00:00 +2°C° 0.1 mm 8 mps 743 mmHg 82%
    01:00 +1°C° 0.1 mm 8 mps 744 mmHg 84%
    02:00 +3°C° 0.5 mm 7 mps 745 mmHg 85%
    03:00 +3°C° 0.5 mm 7 mps 745 mmHg 85%
    04:00 +3°C° 0.5 mm 6 mps 746 mmHg 86%
    05:00 +3°C° 0.1 mm 7 mps 748 mmHg 84%
    06:00 +3°C° 0.1 mm 7 mps 749 mmHg 82%
    07:00 +3°C° 0.1 mm 7 mps 750 mmHg 80%
    08:00 +3°C° 0.1 mm 7 mps 752 mmHg 81%
    09:00 +2°C° 0.1 mm 7 mps 753 mmHg 83%
    10:00 +2°C° 0.1 mm 7 mps 754 mmHg 84%
    11:00 +2°C° 0 mm 7 mps 755 mmHg 76%
    12:00 +2°C° 0 mm 6 mps 756 mmHg 67%
    13:00 +2°C° 0 mm 5 mps 757 mmHg 59%
    14:00 +1°C° 0 mm 4 mps 758 mmHg 62%
    15:00 +1°C° 0 mm 3 mps 758 mmHg 65%
    16:00 +1°C° 0 mm 2 mps 759 mmHg 68%
    17:00 +1°C° 0 mm 2 mps 759 mmHg 71%
    18:00 +1°C° 0 mm 2 mps 759 mmHg 74%
    19:00 -1°C° 0 mm 2 mps 759 mmHg 77%
    20:00 -1°C° 0 mm 2 mps 759 mmHg 79%
    21:00 -1°C° 0 mm 3 mps 759 mmHg 81%
    22:00 -1°C° 0 mm 3 mps 759 mmHg 83%
    23:00 -2°C° 0 mm 4 mps 758 mmHg 84%

    11 December, Wednesday

    Time Temperature Precipitation Wind Pressure Humidity
    00:00 -2°C° 0 mm 4 mps 757 mmHg 86%
    01:00 -2°C° 0 mm 5 mps 757 mmHg 87%
    02:00 -2°C° 0 mm 5 mps 756 mmHg 84%
    03:00 -2°C° 0 mm 6 mps 755 mmHg 81%
    04:00 -2°C° 0 mm 6 mps 755 mmHg 77%
    05:00 -2°C° 0 mm 7 mps 754 mmHg 75%
    06:00 -2°C° 0 mm 7 mps 754 mmHg 73%
    07:00 -2°C° 0 mm 7 mps 753 mmHg 71%
    08:00 -2°C° 0 mm 7 mps 753 mmHg 69%
    09:00 -1°C° 0 mm 7 mps 753 mmHg 66%
    10:00 -1°C° 0 mm 7 mps 753 mmHg 63%
    11:00 +1°C° 0 mm 6 mps 753 mmHg 64%
    12:00 +1°C° 0 mm 6 mps 752 mmHg 65%
    13:00 +1°C° 0 mm 5 mps 752 mmHg 65%
    14:00 +1°C° 0.1 mm 5 mps 752 mmHg 70%
    15:00 +1°C° 0.1 mm 5 mps 752 mmHg 74%
    16:00 0°C° 0.1 mm 4 mps 752 mmHg 79%
    17:00 0°C° 0.2 mm 4 mps 751 mmHg 83%
    18:00 0°C° 0.2 mm 4 mps 751 mmHg 87%
    19:00 +1°C° 0.2 mm 3 mps 751 mmHg 91%
    20:00 +1°C° 0.4 mm 3 mps 751 mmHg 92%
    21:00 +1°C° 0.4 mm 3 mps 751 mmHg 93%
    22:00 +1°C° 0.4 mm 3 mps 751 mmHg 94%
    23:00 +1°C° 0.5 mm 3 mps 751 mmHg 94%

    12 December, Thursday

    Time Temperature Precipitation Wind Pressure Humidity
    00:00 +2°C° 0.5 mm 3 mps 750 mmHg 95%
    01:00 +2°C° 0.5 mm 3 mps 750 mmHg 96%
    02:00 +2°C° 0.3 mm 3 mps 750 mmHg 96%
    03:00 +3°C° 0.3 mm 2 mps 750 mmHg 96%
    04:00 +3°C° 0.3 mm 2 mps 749 mmHg 96%
    05:00 +3°C° 0 mm 2 mps 749 mmHg 96%
    06:00 +3°C° 0 mm 2 mps 749 mmHg 96%
    07:00 +3°C° 0 mm 2 mps 749 mmHg 96%
    08:00 +3°C° 0 mm 2 mps 749 mmHg 95%
    09:00 +2°C° 0 mm 3 mps 749 mmHg 94%
    10:00 +2°C° 0 mm 3 mps 749 mmHg 93%
    11:00 +3°C° 0 mm 3 mps 749 mmHg 91%
    12:00 +3°C° 0 mm 3 mps 749 mmHg 89%
    13:00 +3°C° 0 mm 3 mps 748 mmHg 87%
    14:00 +3°C° 0 mm 3 mps 748 mmHg 88%
    15:00 +2°C° 0 mm 3 mps 748 mmHg 90%
    16:00 +1°C° 0 mm 3 mps 748 mmHg 91%
    17:00 +1°C° 0 mm 3 mps 748 mmHg 91%
    18:00 +1°C° 0 mm 3 mps 748 mmHg 91%
    19:00 +1°C° 0 mm 3 mps 748 mmHg 91%
    20:00 +1°C° 0 mm 3 mps 748 mmHg 91%
    21:00 +1°C° 0 mm 3 mps 747 mmHg 91%
    22:00 0°C° 0 mm 4 mps 747 mmHg 90%
    23:00 0°C° 0 mm 4 mps 747 mmHg 90%
    Show more